Location: Zagreb
(45.8000°N, 16.0000°E)
Time: 15:53:21
(UTC+01:00)

CAS-4B - Pass Details

Date: 04 November 2020
Orbit: 529 x 544 km, 43.0° (Epoch: 28 November)

Event Time Altitude Azimuth Distance (km) Brightness Sun altitude
Exits shadow 04:27:45 16° 176° (S) 1,425 ? -23.5°
Drops below altitude 10° 04:29:06 10° 160° (SSE) 1,771 ? -23.3°
Sets 04:31:43 0° 144° (SE) 2,654 ? -22.8°
